User: anonymous   Login
Location: Unspecified
(0.0000°N, 0.0000°E)
Time: 20:37:17
(UTC+00:00)
Language:

KORONAS-FOTON - Orbit

View from above orbital plane
View from above orbital plane
View from above satellite
View from above satellite

Ground track
Ground track

The orbit data is extracted from the following two-line orbital elements,

1 33504U 09003A   18144.76922137 +.00000572 +00000-0 +28644-4 0  9994
2 33504 082.4438 253.4474 0019589 014.0837 346.0937 15.15167726513192
Epoch (UTC): 24 May 2018 18:27:40
Eccentricity: 0.0019589
inclination: 82.4438°
perigee height: 507 km
apogee height: 534 km
right ascension of ascending node: 253.4474°
argument of perigee: 14.0837°
revolutions per day: 15.15167726
mean anomaly at epoch: 346.0937°
orbit number at epoch: 51319

The dashed part of the orbit path shows where the satellite is in the earth's shadow,  

DLR